Terminal Aerodrome Forecast
Issued by NWS Pittsburgh, PA

Current Version | Previous Version | Graphics & Text | Print | Product List | Glossary On
Versions: 1 2 3 4 5 6 7 8 9 10 11 12 13 14 15 16 17 18 19 20 21 22 23 24 25 26
000
FTUS41 KPBZ 271506 AAA
TAFPIT
TAF AMD
KPIT 271506Z 2715/2818 05005KT P6SM SCT050
     FM280900 00000KT 5SM BR SKC
     FM281300 10005KT P6SM SCT035=

USA.gov is the U.S. government's official web portal to all federal, state and local government web resources and services.